Key West NAF, FL

5:17 PM EDT on March 26, 2017 (GMT -0400)
Key West Naval Air Station

Weather History for KNQX - November, 2013

Change the Weather History Date:

Sunday, November 24, 2013

  Actual Average Record
Temperature  
Mean Temperature 78 °F -  
Max Temperature 82 °F 78 °F 86 °F (1948)
Min Temperature 75 °F 70 °F 51 °F (1970)
Cooling Degree Days 14    
Growing Degree Days 28 (Base 50)    
Moisture  
Dew Point 69 °F    
Average Humidity 73    
Maximum Humidity 83    
Minimum Humidity 65    
Precipitation  
Precipitation 0.00 in - - ()
Sea Level Pressure  
Sea Level Pressure 30.03 in    
Wind  
Wind Speed 9 mph (NE)    
Max Wind Speed 16 mph    
Max Gust Speed 26 mph    
Visibility 10 miles    
Events      
Averages and records for this station are not official NWS values.
T = Trace of Precipitation, MM = Missing Value Source: NWS Daily Summary

Daily Weather History Graph

Daily Weather History Graph

Search for Another Location

Airport or City:

Trip Planner

Search our weather history database for the weather conditions in past years. The results will help you decide how hot, cold, wet, or windy it might be!

Date:

Astronomy

Nov. 24, 2013 Rise Set
Actual Time 6:49 AM EST 5:37 PM EST
Civil Twilight 6:24 AM EST 6:02 PM EST
Nautical Twilight 5:56 AM EST 6:30 PM EST
Astronomical Twilight 5:29 AM EST 6:57 PM EST
Moon 11:42 PM EST (11/24) 11:53 AM EST (11/24)
Length of Visible Light 11h 37m
Length of Day
10h 48m
Waning Gibbous, 61% of the Moon is Illuminated
Nov 24
Waning Gibbous
Nov 25
Last Quarter
Dec 2
New
Dec 9
First Quarter
Dec 17
Full

Hourly Weather History & Observations

Time (EST) Temp. Heat Index Dew Point Humidity Pressure Visibility Wind Dir Wind Speed Gust Speed Precip Events Conditions
12:53 AM - - - N/A% 30.00 in 10.0 mi NNE 5.8 mph - N/A   Clear
1:53 AM - - - N/A% 29.99 in 10.0 mi NNE 8.1 mph - N/A   Partly Cloudy
2:53 AM - - - N/A% 29.98 in 10.0 mi NNE 5.8 mph - N/A   Partly Cloudy
3:53 AM - - - N/A% 29.98 in 10.0 mi NE 6.9 mph - N/A   Scattered Clouds
4:08 AM - - - N/A% 29.98 in 10.0 mi NE 6.9 mph - N/A   Scattered Clouds
4:53 AM - - - N/A% 29.98 in 10.0 mi NE 6.9 mph - N/A   Partly Cloudy
5:53 AM - - - N/A% 30.00 in 10.0 mi NE 6.9 mph - N/A   Clear
6:07 AM 77.0 °F - 69.8 °F 78% 30.00 in 10.0 mi ENE 6.9 mph - N/A   Mostly Cloudy
6:53 AM 76.3 °F - 69.4 °F 79% 30.02 in 10.0 mi ENE 6.9 mph - N/A   Scattered Clouds
7:53 AM 77.2 °F - 71.6 °F 83% 30.04 in 10.0 mi ENE 5.8 mph - N/A   Scattered Clouds
8:53 AM 76.5 °F - 70.2 °F 81% 30.06 in 10.0 mi ENE 8.1 mph - N/A   Mostly Cloudy
9:53 AM 77.2 °F - 69.1 °F 76% 30.06 in 10.0 mi NE 8.1 mph 16.1 mph N/A   Scattered Clouds
10:53 AM 80.4 °F 83.6 °F 70.0 °F 70% 30.06 in 10.0 mi ENE 11.5 mph 16.1 mph N/A   Partly Cloudy
11:53 AM 80.6 °F 83.2 °F 68.0 °F 65% 30.05 in 10.0 mi NNE 13.8 mph - N/A   Partly Cloudy
12:53 PM 78.8 °F - 66.2 °F 65% 30.03 in 10.0 mi NNE 12.7 mph - N/A   Partly Cloudy
1:53 PM 78.8 °F - 66.2 °F 65% 30.01 in 10.0 mi NNE 12.7 mph 18.4 mph N/A   Partly Cloudy
2:53 PM 78.8 °F - 66.2 °F 65% 30.01 in 10.0 mi North 11.5 mph - N/A   Partly Cloudy
3:53 PM 78.8 °F - 66.2 °F 65% 30.02 in 10.0 mi NNE 11.5 mph - N/A   Scattered Clouds
4:53 PM 82.4 °F 87.2 °F 71.6 °F 70% 30.03 in 10.0 mi NNE 11.5 mph - N/A   Scattered Clouds
5:53 PM 80.6 °F 83.9 °F 69.8 °F 70% 30.04 in 10.0 mi ENE 9.2 mph - N/A   Scattered Clouds
6:53 PM 78.8 °F - 68.0 °F 69% 30.06 in 10.0 mi ENE 9.2 mph - N/A   Scattered Clouds
7:53 PM 77.0 °F - 69.8 °F 78% 30.07 in 10.0 mi East 10.4 mph - N/A   Scattered Clouds
8:53 PM 75.2 °F - 69.8 °F 83% 30.09 in 10.0 mi NE 16.1 mph 23.0 mph N/A   Mostly Cloudy
9:53 PM 75.2 °F - 69.8 °F 83% 30.09 in 10.0 mi NE 15.0 mph 26.5 mph N/A   Mostly Cloudy
10:53 PM - - - N/A% 30.10 in 10.0 mi ENE 16.1 mph 21.9 mph N/A   Clear
11:53 PM - - - N/A% 30.08 in 10.0 mi ENE 12.7 mph 23.0 mph N/A   Scattered Clouds